494P/PanSTARRS (2017)

Japanese version
Home page
Updated on November 30, 2024

---------------------------------------------------------------------

* Profile

Designation 494P/2017 R2

* Orbital Elements

Epoch 2017 Jan. 7.0 TT = JDT 2457760.5                                          
T 2017 Jan. 1.52094 TT                                  Rudenko                 
q   2.4384649            (2000.0)            P               Q                  
n   0.13331851     Peri.   48.58396     +0.39623362     +0.90987124             
a   3.7949765      Node   245.15160     -0.87764610     +0.33598264             
e   0.3574493      Incl.    7.79145     -0.26969659     +0.24341322             
P   7.39                                                                        
>From 32 observations 2010 Oct. 8-2024 July 9, mean residual 1".4.               

* Magnitudes Graph

        m1 = 15.5 + 5 log d + 10.0 log r

---------------------------------------------------------------------

The orbital elements are published on M.P.E.C. 2024-N123.
The magnitudes graphs are made with Comet for Windows.

---------------------------------------------------------------------

Copyright(C) Seiichi Yoshida (comet@aerith.net). All rights reserved.